TimePDT,TemperatureF,Dew PointF,Humidity,Sea Level PressureIn,VisibilityMPH,Wind Direction,Wind SpeedMPH,Gust SpeedMPH,PrecipitationIn,Events,Conditions,WindDirDegrees,DateUTC
12:52 AM,73.9,43.0,33,29.77,10.0,NNW,19.6,28.8,N/A,,Clear,340,2013-05-25 07:52:00
1:52 AM,73.0,42.1,33,29.76,10.0,NNW,15.0,23.0,N/A,,Clear,340,2013-05-25 08:52:00
2:52 AM,72.0,39.9,31,29.77,10.0,NW,16.1,21.9,N/A,,Clear,310,2013-05-25 09:52:00
3:52 AM,71.1,41.0,34,29.78,10.0,NW,15.0,-,N/A,,Clear,310,2013-05-25 10:52:00
4:52 AM,70.0,43.0,38,29.79,10.0,NW,10.4,-,N/A,,Clear,310,2013-05-25 11:52:00
5:52 AM,66.9,43.0,42,29.81,10.0,WNW,9.2,-,N/A,,Clear,300,2013-05-25 12:52:00
6:52 AM,70.0,43.0,38,29.82,10.0,NW,10.4,-,N/A,,Clear,320,2013-05-25 13:52:00
7:52 AM,73.0,44.1,35,29.84,10.0,NW,10.4,-,N/A,,Clear,320,2013-05-25 14:52:00
8:52 AM,78.1,39.9,25,29.85,10.0,NW,11.5,-,N/A,,Clear,320,2013-05-25 15:52:00
9:52 AM,80.1,37.0,21,29.85,10.0,Calm,Calm,-,N/A,,Clear,0,2013-05-25 16:52:00
10:52 AM,84.9,26.1,12,29.85,10.0,East,4.6,-,N/A,,Clear,100,2013-05-25 17:52:00
11:52 AM,88.0,23.0,9,29.85,10.0,Variable,3.5,-,N/A,,Clear,0,2013-05-25 18:52:00
12:52 PM,90.0,26.1,10,29.83,10.0,Variable,3.5,-,N/A,,Clear,0,2013-05-25 19:52:00
1:52 PM,91.9,27.0,10,29.82,10.0,East,10.4,-,N/A,,Clear,90,2013-05-25 20:52:00
2:52 PM,93.0,25.0,9,29.80,10.0,SE,6.9,-,N/A,,Clear,140,2013-05-25 21:52:00
3:52 PM,93.0,19.9,7,29.78,10.0,ESE,5.8,-,N/A,,Clear,110,2013-05-25 22:52:00
4:52 PM,93.9,18.0,6,29.76,10.0,Calm,Calm,-,N/A,,Clear,0,2013-05-25 23:52:00
5:52 PM,93.0,25.0,9,29.75,10.0,Calm,Calm,-,N/A,,Clear,0,2013-05-26 00:52:00
6:52 PM,91.0,30.9,12,29.75,10.0,NNW,11.5,-,N/A,,Clear,330,2013-05-26 01:52:00
7:52 PM,84.9,39.0,20,29.75,10.0,NNW,15.0,-,N/A,,Clear,330,2013-05-26 02:52:00
8:52 PM,82.0,43.0,25,29.77,10.0,North,17.3,25.3,N/A,,Clear,350,2013-05-26 03:52:00
9:52 PM,79.0,44.1,29,29.78,10.0,NNW,19.6,-,N/A,,Clear,330,2013-05-26 04:52:00
10:52 PM,77.0,44.1,31,29.79,10.0,NNW,19.6,27.6,N/A,,Clear,330,2013-05-26 05:52:00
11:52 PM,73.9,46.0,37,29.80,10.0,NNW,15.0,23.0,N/A,,Clear,330,2013-05-26 06:52:00